Location: Estes P
(40.3770°N, 105.5210°W)
Time: 11:04:08
(UTC-07:00)

Tiangong 2 - Visible Passes

Search period start: 15 December 2017 00:00
Search period end: 25 December 2017 00:00
Orbit: 386 x 390 km, 42.8° (Epoch: 14 December)

Date Brightness Start Highest point End Pass type
(mag) Time Alt. Az. Time Alt. Az. Time Alt. Az.
20 Dec 3.1 18:27:45 10° SSW 18:29:28 20° S 18:29:28 20° S visible
21 Dec 3.5 17:30:28 10° S 17:32:01 13° SE 17:33:33 10° ESE visible
21 Dec 3.9 19:05:16 10° WSW 19:06:12 18° WSW 19:06:12 18° WSW visible
22 Dec 1.8 18:07:02 10° SW 18:10:00 39° SSE 18:10:34 35° SE visible
23 Dec 2.8 17:09:04 10° SSW 17:11:38 23° SSE 17:14:14 10° E visible
23 Dec 2.5 18:45:04 10° WSW 18:47:10 38° W 18:47:10 38° W visible
24 Dec 1.2 17:46:36 10° WSW 17:49:45 67° SSE 17:51:27 24° E visible
24 Dec 4.6 19:23:32 10° W 19:23:44 11° W 19:23:44 11° W visible
